This demonstration page uses our WeatherBlox Daily Observations layout. Learn more.

Left ArrowRight Arrow

53.62937, 11.41316

Hourly Observations for January 24, 2018

Temp ( °F °C ) Dew Point ( °F °C ) Humidity (%) Winds ( mph kmh ) Pressure ( in mb ) Visibility ( mi km ) Precip ( " mm )
7:50 am 07:50 Mostly Cloudy 48 9 46 8 94 94 SSW 15 24 29.94 1014 30 48 N/A
8:20 am 08:20 Mostly Cloudy 48 9 46 8 94 94 SSW 14 22 29.94 1014 30 48 N/A
8:50 am 08:50 Mostly Cloudy 48 9 46 8 94 94 SSW 13 20 29.97 1015 30 48 N/A
9:20 am 09:20 Mostly Cloudy 48 9 46 8 94 94 S 13 20 29.97 1015 30 48 N/A
9:50 am 09:50 Mostly Cloudy 48 9 46 8 94 94 S 14 22 29.97 1015 30 48 N/A
10:20 am 10:20 Mostly Cloudy 48 9 46 8 94 94 SSW 14 22 29.97 1015 30 48 N/A
10:50 am 10:50 Mostly Cloudy 50 10 46 8 88 88 SSW 15 24 29.94 1014 30 48 N/A
11:20 am 11:20 Mostly Cloudy 50 10 46 8 88 88 S 16 26 29.94 1014 30 48 N/A
11:50 am 11:50 Mostly Cloudy 50 10 48 9 94 94 SSW 17 28 29.94 1014 30 48 N/A
12:20 pm 12:20 Mostly Cloudy 52 11 48 9 88 88 S 18 30 29.91 1013 30 48 N/A
12:50 pm 12:50 Mostly Cloudy 50 10 48 9 94 94 SSW 17 28 29.91 1013 30 48 N/A
1:20 pm 13:20 Mostly Cloudy 52 11 48 9 88 88 S 15 24 29.88 1012 30 48 N/A
1:50 pm 13:50 Partly Cloudy 52 11 48 9 88 88 S 16 26 29.88 1012 30 48 N/A
2:20 pm 14:20 Mostly Cloudy 52 11 46 8 82 82 S 15 24 29.85 1011 30 48 N/A
2:50 pm 14:50 Mostly Cloudy 52 11 48 9 88 88 S 16 26 29.85 1011 30 48 N/A
3:20 pm 15:20 Cloudy 52 11 46 8 82 82 S 18 30 29.85 1011 30 48 N/A
3:50 pm 15:50 Mostly Cloudy 52 11 46 8 82 82 S 16 26 29.83 1010 30 48 N/A
4:20 pm 16:20 Mostly Cloudy 54 12 46 8 77 77 S 17 28 29.83 1010 30 48 N/A
4:50 pm 16:50 Mostly Cloudy 54 12 46 8 77 77 S 16 26 29.83 1010 30 48 N/A
5:20 pm 17:20 Mostly Cloudy 54 12 46 8 77 77 S 15 24 29.83 1010 30 48 N/A
5:50 pm 17:50 Mostly Cloudy 52 11 46 8 82 82 S 14 22 29.80 1009 30 48 N/A

Powered by AerisWeather